• In Hungary
  • List of Countries
  • For 7 days
  • Water Temperature
  • Satellite Maps
  • Weather Map
  • News
  • Weather Widgets
  • user-avatar
    Login

    Hourly Weather Pucón

    Today, 14 November, Wednesday

    Time Temperature Precipitation Wind Pressure Humidity
    00:00 +9°C° 0 mm 1 mps 735 mmHg 96%
    01:00 +9°C° 0 mm 1 mps 734 mmHg 96%
    02:00 +9°C° 0.1 mm 1 mps 734 mmHg 96%
    03:00 +9°C° 0.1 mm 1 mps 734 mmHg 96%
    04:00 +9°C° 0.1 mm 1 mps 734 mmHg 96%
    05:00 +9°C° 0.2 mm 1 mps 733 mmHg 95%
    06:00 +9°C° 0.2 mm 2 mps 733 mmHg 94%
    07:00 +10°C° 0.2 mm 2 mps 733 mmHg 93%
    08:00 +12°C° 0.2 mm 2 mps 733 mmHg 90%
    09:00 +12°C° 0.2 mm 2 mps 733 mmHg 87%
    10:00 +13°C° 0.2 mm 2 mps 733 mmHg 84%
    11:00 +13°C° 0.3 mm 2 mps 732 mmHg 84%
    12:00 +13°C° 0.3 mm 3 mps 732 mmHg 85%
    13:00 +13°C° 0.3 mm 3 mps 731 mmHg 85%
    14:00 +13°C° 0.6 mm 2 mps 731 mmHg 88%
    15:00 +12°C° 0.6 mm 2 mps 731 mmHg 92%
    16:00 +12°C° 0.6 mm 2 mps 730 mmHg 95%
    17:00 +10°C° 1.1 mm 2 mps 730 mmHg 96%
    18:00 +10°C° 1.1 mm 2 mps 730 mmHg 97%
    19:00 +10°C° 1.1 mm 2 mps 730 mmHg 98%
    20:00 +10°C° 1.3 mm 2 mps 730 mmHg 98%
    21:00 +10°C° 1.3 mm 2 mps 731 mmHg 98%
    22:00 +10°C° 1.3 mm 3 mps 731 mmHg 98%
    23:00 +10°C° 0.7 mm 3 mps 731 mmHg 98%

    Tomorrow, 15 November, Thursday

    Time Temperature Precipitation Wind Pressure Humidity
    00:00 +9°C° 0.7 mm 2 mps 731 mmHg 98%
    01:00 +9°C° 0.7 mm 2 mps 731 mmHg 98%
    02:00 +8°C° 0.1 mm 2 mps 731 mmHg 98%
    03:00 +7°C° 0.1 mm 2 mps 731 mmHg 98%
    04:00 +8°C° 0.1 mm 1 mps 732 mmHg 98%
    05:00 +8°C° 0 mm 1 mps 732 mmHg 96%
    06:00 +8°C° 0 mm 1 mps 733 mmHg 94%
    07:00 +9°C° 0 mm 1 mps 733 mmHg 92%
    08:00 +11°C° 0 mm 1 mps 733 mmHg 76%
    09:00 +13°C° 0 mm 1 mps 733 mmHg 60%
    10:00 +16°C° 0 mm 2 mps 733 mmHg 44%
    11:00 +17°C° 0 mm 2 mps 733 mmHg 40%
    12:00 +18°C° 0 mm 2 mps 733 mmHg 36%
    13:00 +19°C° 0 mm 2 mps 732 mmHg 33%
    14:00 +18°C° 0 mm 2 mps 732 mmHg 34%
    15:00 +18°C° 0 mm 2 mps 732 mmHg 36%
    16:00 +18°C° 0 mm 2 mps 731 mmHg 37%
    17:00 +15°C° 0 mm 1 mps 732 mmHg 50%
    18:00 +12°C° 0 mm 1 mps 732 mmHg 63%
    19:00 +8°C° 0 mm 0 mps 732 mmHg 75%
    20:00 +8°C° 0 mm 0 mps 732 mmHg 78%
    21:00 +8°C° 0 mm 1 mps 732 mmHg 81%
    22:00 +7°C° 0 mm 1 mps 733 mmHg 84%
    23:00 +7°C° 0 mm 1 mps 732 mmHg 84%

    Day after tomorrow, 16 November, Friday

    Time Temperature Precipitation Wind Pressure Humidity
    00:00 +6°C° 0 mm 1 mps 732 mmHg 84%
    01:00 +6°C° 0 mm 1 mps 732 mmHg 83%
    02:00 +6°C° 0 mm 1 mps 731 mmHg 81%
    03:00 +6°C° 0 mm 1 mps 731 mmHg 80%
    04:00 +6°C° 0 mm 1 mps 730 mmHg 78%
    05:00 +9°C° 0 mm 1 mps 730 mmHg 70%
    06:00 +12°C° 0 mm 1 mps 730 mmHg 63%
    07:00 +14°C° 0 mm 1 mps 730 mmHg 56%
    08:00 +16°C° 0 mm 1 mps 730 mmHg 54%
    09:00 +17°C° 0 mm 2 mps 730 mmHg 51%
    10:00 +18°C° 0 mm 3 mps 730 mmHg 49%
    11:00 +18°C° 0 mm 3 mps 729 mmHg 48%
    12:00 +18°C° 0 mm 3 mps 729 mmHg 47%
    13:00 +18°C° 0 mm 4 mps 729 mmHg 46%
    14:00 +16°C° 0.1 mm 3 mps 729 mmHg 56%
    15:00 +13°C° 0.1 mm 3 mps 729 mmHg 66%
    16:00 +13°C° 0.1 mm 2 mps 729 mmHg 76%
    17:00 +10°C° 0.3 mm 2 mps 730 mmHg 81%
    18:00 +9°C° 0.3 mm 2 mps 730 mmHg 86%
    19:00 +8°C° 0.3 mm 2 mps 731 mmHg 92%
    20:00 +7°C° 0.3 mm 2 mps 731 mmHg 93%
    21:00 +8°C° 0.3 mm 1 mps 732 mmHg 94%
    22:00 +7°C° 0.3 mm 1 mps 733 mmHg 95%
    23:00 +6°C° 0.1 mm 1 mps 733 mmHg 96%

    17 November, Saturday

    Time Temperature Precipitation Wind Pressure Humidity
    00:00 +6°C° 0.1 mm 1 mps 733 mmHg 96%
    01:00 +6°C° 0.1 mm 1 mps 733 mmHg 96%
    02:00 +6°C° 0 mm 1 mps 734 mmHg 96%
    03:00 +5°C° 0 mm 1 mps 734 mmHg 96%
    04:00 +5°C° 0 mm 1 mps 734 mmHg 96%
    05:00 +6°C° 0.1 mm 1 mps 735 mmHg 93%
    06:00 +7°C° 0.1 mm 1 mps 735 mmHg 91%
    07:00 +7°C° 0.1 mm 2 mps 736 mmHg 88%
    08:00 +8°C° 0.1 mm 2 mps 735 mmHg 82%
    09:00 +10°C° 0.1 mm 2 mps 735 mmHg 76%
    10:00 +12°C° 0.1 mm 2 mps 735 mmHg 69%
    11:00 +13°C° 0.2 mm 2 mps 735 mmHg 70%
    12:00 +14°C° 0.2 mm 2 mps 735 mmHg 70%
    13:00 +14°C° 0.2 mm 2 mps 734 mmHg 70%
    14:00 +14°C° 0.4 mm 2 mps 734 mmHg 75%
    15:00 +13°C° 0.4 mm 2 mps 734 mmHg 80%
    16:00 +13°C° 0.4 mm 2 mps 734 mmHg 86%
    17:00 +12°C° 0.2 mm 2 mps 735 mmHg 89%
    18:00 +11°C° 0.2 mm 1 mps 735 mmHg 93%
    19:00 +10°C° 0.2 mm 1 mps 735 mmHg 97%
    20:00 +10°C° 0.1 mm 1 mps 736 mmHg 97%
    21:00 +9°C° 0.1 mm 1 mps 736 mmHg 97%
    22:00 +9°C° 0.1 mm 1 mps 736 mmHg 98%
    23:00 +8°C° 0 mm 1 mps 736 mmHg 98%

    18 November, Sunday

    Time Temperature Precipitation Wind Pressure Humidity
    00:00 +8°C° 0 mm 1 mps 736 mmHg 98%
    01:00 +7°C° 0 mm 1 mps 736 mmHg 99%
    02:00 +7°C° 0 mm 1 mps 736 mmHg 99%
    03:00 +7°C° 0 mm 1 mps 736 mmHg 98%
    04:00 +7°C° 0 mm 1 mps 736 mmHg 98%
    05:00 +8°C° 0 mm 1 mps 735 mmHg 96%
    06:00 +9°C° 0 mm 1 mps 735 mmHg 94%
    07:00 +10°C° 0 mm 1 mps 735 mmHg 91%
    08:00 +13°C° 0 mm 1 mps 735 mmHg 76%
    09:00 +16°C° 0 mm 1 mps 735 mmHg 60%
    10:00 +19°C° 0 mm 1 mps 735 mmHg 45%
    11:00 +19°C° 0 mm 2 mps 734 mmHg 44%
    12:00 +20°C° 0 mm 2 mps 734 mmHg 42%
    13:00 +21°C° 0 mm 2 mps 733 mmHg 41%
    14:00 +21°C° 0 mm 2 mps 733 mmHg 44%
    15:00 +20°C° 0 mm 2 mps 733 mmHg 46%
    16:00 +20°C° 0 mm 2 mps 733 mmHg 49%
    17:00 +18°C° 0 mm 2 mps 733 mmHg 61%
    18:00 +15°C° 0 mm 1 mps 733 mmHg 73%
    19:00 +12°C° 0 mm 1 mps 733 mmHg 84%
    20:00 +12°C° 0 mm 1 mps 733 mmHg 87%
    21:00 +11°C° 0 mm 1 mps 733 mmHg 90%
    22:00 +10°C° 0 mm 1 mps 733 mmHg 93%
    23:00 +10°C° 0 mm 1 mps 732 mmHg 93%

    19 November, Monday

    Time Temperature Precipitation Wind Pressure Humidity
    00:00 +10°C° 0 mm 1 mps 731 mmHg 92%
    01:00 +10°C° 0 mm 1 mps 731 mmHg 92%
    02:00 +10°C° 0 mm 1 mps 730 mmHg 92%
    03:00 +10°C° 0 mm 1 mps 730 mmHg 91%
    04:00 +10°C° 0 mm 1 mps 729 mmHg 91%
    05:00 +13°C° 0 mm 1 mps 729 mmHg 82%
    06:00 +14°C° 0 mm 0 mps 729 mmHg 72%
    07:00 +17°C° 0 mm 0 mps 729 mmHg 63%
    08:00 +21°C° 0 mm 1 mps 729 mmHg 59%
    09:00 +21°C° 0 mm 2 mps 728 mmHg 56%
    10:00 +22°C° 0 mm 3 mps 728 mmHg 52%
    11:00 +22°C° 0 mm 3 mps 728 mmHg 55%
    12:00 +21°C° 0 mm 4 mps 727 mmHg 58%
    13:00 +21°C° 0 mm 4 mps 727 mmHg 61%
    14:00 +20°C° 0.1 mm 4 mps 727 mmHg 62%
    15:00 +19°C° 0.1 mm 4 mps 727 mmHg 63%
    16:00 +17°C° 0.1 mm 5 mps 728 mmHg 64%
    17:00 +15°C° 0.1 mm 4 mps 728 mmHg 75%
    18:00 +13°C° 0.1 mm 3 mps 729 mmHg 85%
    19:00 +12°C° 0.1 mm 3 mps 730 mmHg 95%
    20:00 +12°C° 0.1 mm 2 mps 730 mmHg 96%
    21:00 +12°C° 0.1 mm 2 mps 730 mmHg 97%
    22:00 +10°C° 0.1 mm 2 mps 731 mmHg 97%
    23:00 +10°C° 0.1 mm 2 mps 731 mmHg 97%
    Show more